(171351) = 2005 GZ123 = 2006 KD61

Discovered at Kitt Peak on 2006-05-22 by Spacewatch.

Orbit

Orbit type: Main Belt

Note: WebGL enabled browser required.

epoch2022-01-21.0
epoch JD2459600.5
perihelion date2018-03-20.77430
perihelion JD2458198.27430
argument of perihelion (°)118.00516
ascending node (°)187.49264
inclination (°)8.05070
eccentricity0.0954779
perihelion distance (AU)2.8260640
Tisserand w.r.t. Jupiter3.2
ΔV w.r.t. Earth (km/sec)10.7
semimajor axis (AU)3.1243724
mean anomaly (°)250.25201
mean daily motion (°/day)0.17846770
aphelion distance (AU)3.423
period (years)5.52
P-vector [x]0.57953698
P-vector [y]-0.78822688
P-vector [z]-0.20696684
Q-vector [x]0.81474130
Q-vector [y]0.55470423
Q-vector [z]0.16881896
absolute magnitude16.02
phase slope0.15
uncertainty0
referenceMPO 694723
observations used267
oppositions14
arc length (days)9364
first opposition used1996
last opposition used2022
residual rms (arc-secs)0.89
perturbers coarse indicatorM-v
perturbers precise indicator003Ek
first observation date used1996-09-12.0
last observation date used2022-05-03.0
computer namePan
JD of orbit computation2456670.708947
perihelion JD uncertainty (days)2.9125E-04
argument of perihelion uncertainty (°)7.1450E-05
ascending node uncertainty (°)4.9471E-05
inclination uncertainty (°)9.1348E-06
eccentricity uncertainty 6.4675E-08
perihelion distance uncertainty (AU)1.9236E-07
Minimum Orbit Intersection Distances (in AU)
for orbit epoch: 2458200.5, reference: MPO410874
Mercury2.39725
Venus2.11077
Earth1.8217
Mars1.44855
Jupiter1.83141
Saturn5.74205
Uranus14.8708
Neptune26.5998

Observations

277 total observations over interval: 1996 09 12.24771 – 2022 05 03.609673
These data are available for download (format description).

Date (UT) J2000 RA J2000 Dec Magn Location Ref
1996 09 12.24771 23 14 19.12 -00 38 29.4   691 – Steward Observatory, Kitt Peak-Spacewatch MPS 173995
1996 09 12.26880 23 14 18.15 -00 38 38.8 20.0 V 691 – Steward Observatory, Kitt Peak-Spacewatch MPS 173995
1996 09 12.28990 23 14 17.25 -00 38 47.8   691 – Steward Observatory, Kitt Peak-Spacewatch MPS 173995
2005 03 17.29412 10 57 55.76 +02 28 53.3 20.5 R G96 – Mt. Lemmon Survey MPS 173995
2005 03 17.30036 10 57 55.48 +02 28 55.9 20.5 R G96 – Mt. Lemmon Survey MPS 173995
2005 03 17.30661 10 57 55.21 +02 28 58.2 20.6 R G96 – Mt. Lemmon Survey MPS 173995
2005 03 17.31286 10 57 54.85 +02 29 01.6 19.1 R G96 – Mt. Lemmon Survey MPS 173995
2005 04 09.14446 10 45 36.54 +04 39 31.0 21.5 V 691 – Steward Observatory, Kitt Peak-Spacewatch MPS 131885
2005 04 09.16028 10 45 36.23 +04 39 35.4 21.7 V 691 – Steward Observatory, Kitt Peak-Spacewatch MPS 131885
2005 04 09.17622 10 45 35.83 +04 39 40.3 21.7 V 691 – Steward Observatory, Kitt Peak-Spacewatch MPS 131885
2005 04 12.16333 10 44 35.23 +04 53 18.7 22.1 R G96 – Mt. Lemmon Survey MPS 131885
2005 04 12.16936 10 44 35.13 +04 53 20.6 20.6 R G96 – Mt. Lemmon Survey MPS 131885
2005 04 12.17537 10 44 35.01 +04 53 22.8 21.6 R G96 – Mt. Lemmon Survey MPS 131885
2005 04 12.18138 10 44 34.88 +04 53 23.0 21.2 R G96 – Mt. Lemmon Survey MPS 131885
2006 05 08.38152 16 33 17.31 -12 12 44.2 19.6 V G96 – Mt. Lemmon Survey MPS 173624
2006 05 08.38711 16 33 17.10 -12 12 42.9 19.4 V G96 – Mt. Lemmon Survey MPS 173624
2006 05 08.39279 16 33 16.88 -12 12 41.3 19.6 V G96 – Mt. Lemmon Survey MPS 173624
2006 05 08.39847 16 33 16.66 -12 12 39.5 19.5 V G96 – Mt. Lemmon Survey MPS 173624
2006 05 22.36270 16 23 27.31 -11 14 18.3   691 – Steward Observatory, Kitt Peak-Spacewatch MPS 172957
2006 05 22.38005 16 23 26.48 -11 14 14.3   691 – Steward Observatory, Kitt Peak-Spacewatch MPS 172957
2006 05 22.39741 16 23 25.68 -11 14 10.0   691 – Steward Observatory, Kitt Peak-Spacewatch MPS 172957
2006 05 25.37794 16 21 07.41 -11 03 00.6 19.9 V G96 – Mt. Lemmon Survey MPS 172957
2006 05 25.38322 16 21 07.12 -11 02 59.4 19.9 V G96 – Mt. Lemmon Survey MPS 172957
2006 05 25.38840 16 21 06.87 -11 02 58.2 20.1 V G96 – Mt. Lemmon Survey MPS 172957
2006 05 25.39343 16 21 06.62 -11 02 56.9 20.0 V G96 – Mt. Lemmon Survey MPS 172957
2006 05 30.29199 16 17 17.20 -10 46 02.8 20.3 V 691 – Steward Observatory, Kitt Peak-Spacewatch MPS 172957
2006 05 30.30935 16 17 16.33 -10 45 59.2 20.3 V 691 – Steward Observatory, Kitt Peak-Spacewatch MPS 172957
2006 05 30.32675 16 17 15.51 -10 45 56.0 20.2 V 691 – Steward Observatory, Kitt Peak-Spacewatch MPS 172958
2006 06 15.34349 16 05 34.29 -10 06 48.2   691 – Steward Observatory, Kitt Peak-Spacewatch MPS 173995
2006 06 15.36082 16 05 33.56 -10 06 45.6   691 – Steward Observatory, Kitt Peak-Spacewatch MPS 173995
2006 06 15.37813 16 05 32.89 -10 06 44.3   691 – Steward Observatory, Kitt Peak-Spacewatch MPS 173995
2007 09 03.31240 23 09 34.48 -00 18 54.2 19.4 V 703 – Catalina Sky Survey MPS 214467
2007 09 03.31854 23 09 34.23 -00 18 56.1 19.9 V 703 – Catalina Sky Survey MPS 214467
2007 09 03.32468 23 09 34.16 -00 18 59.0 19.6 V 703 – Catalina Sky Survey MPS 214467
2007 09 03.33080 23 09 33.76 -00 19 00.6 19.8 V 703 – Catalina Sky Survey MPS 214467
2007 09 10.16148 23 04 53.37 -01 06 41.6 20.2 V 691 – Steward Observatory, Kitt Peak-Spacewatch MPS 215179
2007 09 10.17915 23 04 52.62 -01 06 49.3 20.2 V 691 – Steward Observatory, Kitt Peak-Spacewatch MPS 215179
2007 09 10.19437 23 04 51.97 -01 06 55.8 20.0 V 691 – Steward Observatory, Kitt Peak-Spacewatch MPS 215179
2007 09 10.24792 23 04 49.62 -01 07 18.8 20.0 V 703 – Catalina Sky Survey MPS 215179
2007 09 10.25496 23 04 49.40 -01 07 20.9 19.7 V 703 – Catalina Sky Survey MPS 215179
2007 09 10.26200 23 04 49.08 -01 07 23.5 19.9 V 703 – Catalina Sky Survey MPS 215179
2007 09 10.27424 23 04 48.54 -01 07 29.1 19.8 V 703 – Catalina Sky Survey MPS 215179
2007 09 14.17199 23 02 09.64 -01 35 26.5 19.8 V 691 – Steward Observatory, Kitt Peak-Spacewatch MPS 215179
2007 09 14.18957 23 02 08.90 -01 35 34.6 19.8 V 691 – Steward Observatory, Kitt Peak-Spacewatch MPS 215179
2007 09 14.20716 23 02 08.19 -01 35 41.7 19.7 V 691 – Steward Observatory, Kitt Peak-Spacewatch MPS 215179
2007 10 08.22868 22 49 07.64 -04 14 29.5 20.1 V G96 – Mt. Lemmon Survey MPS 218718
2007 10 08.23558 22 49 07.50 -04 14 32.0 20.2 V G96 – Mt. Lemmon Survey MPS 218718
2007 10 08.24235 22 49 07.35 -04 14 34.3 20.1 V G96 – Mt. Lemmon Survey MPS 218718
2007 10 08.24925 22 49 07.17 -04 14 36.6 20.3 V G96 – Mt. Lemmon Survey MPS 218718
2007 11 07.12240 22 48 01.54 -05 55 16.8 20.7 V G96 – Mt. Lemmon Survey MPS 224930
2007 11 07.12806 22 48 01.65 -05 55 17.0 20.9 V G96 – Mt. Lemmon Survey MPS 224930
2007 11 07.13360 22 48 01.72 -05 55 17.4 20.7 V G96 – Mt. Lemmon Survey MPS 224930
2007 11 07.13913 22 48 01.83 -05 55 17.8 20.8 V G96 – Mt. Lemmon Survey MPS 224930
2008 10 26.42454 04 57 12.06 +13 48 54.9 20.5 V G96 – Mt. Lemmon Survey MPS 262939
2008 10 26.42943 04 57 11.95 +13 48 54.0 20.8 V G96 – Mt. Lemmon Survey MPS 262939
2008 10 26.43436 04 57 11.80 +13 48 52.6 20.4 V G96 – Mt. Lemmon Survey MPS 262939
2008 10 26.43934 04 57 11.70 +13 48 51.9 21.0 V G96 – Mt. Lemmon Survey MPS 262939
2008 11 07.44356 04 51 06.94 +13 05 04.4 20.6 V G96 – Mt. Lemmon Survey MPS 264487
2008 11 07.45093 04 51 06.69 +13 05 02.9 20.3 V G96 – Mt. Lemmon Survey MPS 264487
2008 11 07.45829 04 51 06.37 +13 05 00.8 20.8 V G96 – Mt. Lemmon Survey MPS 264487
2008 11 07.46564 04 51 06.08 +13 04 59.7 20.6 V G96 – Mt. Lemmon Survey MPS 264487
2008 12 01.31705 04 33 08.42 +11 48 20.4 20.6 V G96 – Mt. Lemmon Survey MPS 268679
2008 12 01.32373 04 33 08.10 +11 48 19.2 20.4 V G96 – Mt. Lemmon Survey MPS 268679
2008 12 01.33053 04 33 07.74 +11 48 18.2 20.8 V G96 – Mt. Lemmon Survey MPS 268679
2008 12 01.33726 04 33 07.38 +11 48 16.9 20.4 V G96 – Mt. Lemmon Survey MPS 268679
2008 12 02.36400 04 32 16.87 +11 45 40.0 20.1 V G96 – Mt. Lemmon Survey MPS 268679
2008 12 02.37062 04 32 16.54 +11 45 39.0 20.3 V G96 – Mt. Lemmon Survey MPS 268679
2008 12 02.37737 04 32 16.22 +11 45 38.2 20.0 V G96 – Mt. Lemmon Survey MPS 268679
2008 12 02.38417 04 32 15.90 +11 45 37.4 20.2 V G96 – Mt. Lemmon Survey MPS 268679
2010 01 08.34568 09 11 55.96 +06 36 13.6 21.1 V 691 – Steward Observatory, Kitt Peak-Spacewatch MPS 310030
2010 01 08.36333 09 11 55.34 +06 36 15.8 21.2 V 691 – Steward Observatory, Kitt Peak-Spacewatch MPS 310030
2010 01 08.38098 09 11 54.71 +06 36 17.8 21.6 V 691 – Steward Observatory, Kitt Peak-Spacewatch MPS 310030
2010 02 15.22107 08 44 53.84 +08 54 30.3 20.8 V G96 – Mt. Lemmon Survey MPS 316295
2010 02 15.22766 08 44 53.55 +08 54 32.1 20.9 V G96 – Mt. Lemmon Survey MPS 316295
2010 02 15.23420 08 44 53.26 +08 54 34.2 20.6 V G96 – Mt. Lemmon Survey MPS 316295
2010 02 15.24079 08 44 52.98 +08 54 35.9 20.7 V G96 – Mt. Lemmon Survey MPS 316295
2010 04 24.371103 08 37 21.00 +12 33 14.3   C51 – WISE MPS 326130
2010 04 24.503406 08 37 25.27 +12 33 18.3   C51 – WISE MPS 326130
2010 04 24.635711 08 37 29.37 +12 33 23.5   C51 – WISE MPS 326130
2010 04 24.834231 08 37 35.78 +12 33 29.5   C51 – WISE MPS 326130
2010 04 24.900319 08 37 37.80 +12 33 33.3   C51 – WISE MPS 326130
2010 04 24.966536 08 37 40.02 +12 33 36.0   C51 – WISE MPS 326130
2010 04 25.032624 08 37 42.11 +12 33 37.1   C51 – WISE MPS 326130
2010 04 25.231144 08 37 48.50 +12 33 45.4   C51 – WISE MPS 326130
2010 04 25.363448 08 37 52.78 +12 33 48.7   C51 – WISE MPS 326130
2010 04 25.49575 08 37 57.17 +12 33 54.4   C51 – WISE MPS 326130
2011 05 08.18240 13 06 55.40 -03 13 50.2 21.1 V G96 – Mt. Lemmon Survey MPS 382925
2011 05 08.19003 13 06 55.15 -03 13 48.1 20.4 V G96 – Mt. Lemmon Survey MPS 382925
2011 05 08.19771 13 06 54.93 -03 13 46.4 20.7 V G96 – Mt. Lemmon Survey MPS 382925
2011 05 08.20523 13 06 54.68 -03 13 44.1 20.9 V G96 – Mt. Lemmon Survey MPS 382925
2013 10 03.41814 02 09 35.696 +09 11 29.91 20.6 w F51 – Pan-STARRS 1, Haleakala MPS 479587
2013 10 03.43346 02 09 35.117 +09 11 24.45 20.7 w F51 – Pan-STARRS 1, Haleakala MPS 479587
2013 10 03.44860 02 09 34.559 +09 11 19.09 20.7 w F51 – Pan-STARRS 1, Haleakala MPS 479587
